Find Molniya-1

NORAD ID: 21426 Int'l Des: 1991-043 Owner: UNKSR Country: SU operational
MEOELLIPTICALHEO_ELLIPTICALSEMI_SYNCMOLNIYA

实时位置

正在加载3D地球...

关于 Molniya-1

正在加载描述...

即将过境

Passes for default location (London). Set your location on the main map for personalized predictions.

高度历史

Loading altitude history...

两行轨道根数

1 21426U 91043A 26104.28049654 .00000335 00000-0 00000+0 0 9993
2 21426 63.4161 186.3119 6750588 258.4552 24.4237 2.00606768255185
Epoch: Apr 14, 2026 • Age: 59 hours

当前状态

高度 5444.8 km
速度 7.24 km/s
星下点 -6.97°S, 95.03°W
发射日期 Jun 18, 1991
运行时间 34.8 years
类型 other

技术详情

分类 Payload
质量 1670.00 kg
干质量 1620.00 kg
总质量 1670.00 kg
长度 4.40 m
直径 1.40 m
跨度 8.60 m
形状 Cyl + 6 Pan
制造商 NPOPM
平台类型 Molniya-1T
阶段状态 In Orbit
所有者/国家 UNKSR/SU

Most Searched